[[{"header":{"parameterUnit":"m.s-1","parameterCategory":1,"la1":30.2991,"la2":30.254,"lo1":-89.0895,"lo2":-89.0444,"dy":0.0017,"dx":0.0017,"nx":28,"ny":28,"refTime":"2025-03-10T09:00:00:Z","depth":0,"parameterNumber":2,"parameterNumberName":"U-component_of_WINDS"},"data":[0,0,0,0,0,0,0,0,0,0,0,0,0,0,0,0,0,0,0,0,0,0,0,0,0,0,0,0,0,0,0,0,0,0,0,0,0,0,0,0,0,0,0,0,0,0,0,0,0,0,0,0,0,0,0,0,0,0,2.096,2.0961,0,2.1028,2.1029,2.1029,2.1006,2.1005,2.1003,2.1002,2.1071,2.1074,2.1077,0,0,0,0,0,0,0,0,0,0,0,0,0,2.0811,2.0814,2.096,2.0961,2.0962,2.1028,2.1029,2.103,2.1006,2.1005,2.1003,2.1001,2.107,2.1074,2.1077,0,0,0,0,0,0,0,0,0,0,0,0,0,2.0877,2.0815,2.096,2.0958,2.0959,2.1028,2.1029,2.103,2.1007,2.1004,2.1002,2.1,2.1068,2.1073,2.1078,2.1153,0,0,2.1093,2.1095,0,0,0,0,0,0,0,0,2.0873,2.0882,2.0958,2.0958,2.0959,2.1006,2.1001,2.1071,2.1007,2.0988,2.1002,2.0999,2.1051,2.1057,2.1075,2.1156,2.1159,2.1093,2.1096,2.1098,2.11,0,0,0,0,0,0,0,2.0869,2.0879,2.0987,2.0959,2.096,2.0954,2.0961,2.1015,2.1032,2.099,2.0988,2.0997,2.1051,2.107,2.1076,2.116,2.1093,2.1097,2.11,2.1102,2.1307,2.131,0,0,0,0,0,0,2.0864,2.0876,2.0985,2.0989,2.091,2.0959,2.0966,2.0993,2.1031,2.1034,2.0999,2.0995,2.1063,2.1071,2.1079,2.1169,2.1098,2.1103,2.1106,2.1305,2.1308,2.131,0,0,0,0,0,0,2.086,2.0874,2.0982,2.0932,2.0945,2.0964,2.0994,2.0996,2.1015,2.1037,2.104,2.1015,2.1062,2.1072,2.1135,2.1171,2.1105,2.1109,2.1302,2.1306,2.1309,2.1351,0,0,0,0,0,0,2.0856,2.0873,2.0901,2.0933,2.0948,2.1037,2.0996,2.0999,2.1023,2.102,2.1054,2.1057,2.1061,2.1128,2.114,2.1177,2.1113,2.1298,2.1303,2.1308,2.1347,2.1356,2.1364,0,0,0,0,0,2.0851,2.091,2.0902,2.0916,2.0984,2.1039,2.1048,2.1051,2.1027,2.1055,2.107,2.1056,2.1166,2.1134,2.1148,2.1187,2.1296,2.1302,2.1308,2.1343,2.1354,2.1364,0,0,0,0,0,0,2.0881,2.0914,2.0906,2.0977,2.1006,2.1035,2.1071,2.1063,2.1099,2.1094,2.1096,2.1104,2.1169,2.1184,2.1149,2.1262,2.1227,2.1236,2.1249,2.1261,2.1269,2.1264,2.1117,0,0,0,0,0,2.0896,2.0938,2.0964,2.1024,2.1039,2.1053,2.1077,2.1077,2.1107,2.1119,2.1138,2.1167,2.1208,2.1235,2.1274,2.1349,2.1356,2.1383,2.1391,2.1398,2.1406,2.1447,2.1459,2.1329,2.1329,2.1329,0,0,2.0927,2.095,2.0977,2.1031,2.1053,2.1097,2.1063,2.1111,2.1143,2.1126,2.1187,2.1202,2.1235,2.1304,2.1336,2.1319,2.1443,2.1405,2.1411,2.1415,2.1454,2.1467,2.1478,2.1333,2.1332,2.1332,0,0,2.1007,2.1028,2.1081,2.1104,2.1138,2.1147,2.116,2.1191,2.1201,2.1262,2.125,2.1289,2.136,2.1384,2.1406,2.1496,2.1485,2.1509,2.1554,2.1594,2.1605,2.1614,2.1646,2.1658,2.1516,2.1516,2.1516,0,2.1041,2.1106,2.1109,2.1158,2.1182,2.1169,2.1223,2.1245,2.129,2.1308,2.1289,2.1378,2.1399,2.1474,2.1497,2.1514,2.1529,2.1504,2.1603,2.1612,2.1621,2.1652,2.1664,2.1519,2.1518,2.1518,2.1518,0,2.1147,2.1193,2.1231,2.1276,2.1305,2.1356,2.1367,2.1396,2.1394,2.1405,2.1468,2.1493,2.1538,2.1556,2.1554,2.1631,2.162,2.1602,2.1567,2.1636,2.1665,2.1677,2.1523,2.1522,2.1521,2.152,0,0,2.1246,2.1293,2.1307,2.1327,2.1365,2.14,2.1451,2.1495,2.152,2.1552,2.1595,2.1656,2.164,2.1665,2.1666,2.1701,2.1772,2.1679,2.168,2.1696,2.186,2.1873,2.1887,2.1765,2.1767,2.1769,2.1857,0,2.1329,2.1418,2.1423,2.1504,2.1547,2.1536,2.158,2.1608,2.1621,2.1659,2.1672,2.1715,2.1691,2.1706,2.174,2.1756,2.1805,2.175,2.1805,2.1807,2.1797,2.1902,2.1916,2.1998,2.1869,2.1871,2.1872,0,2.1437,2.1473,2.1559,2.1591,2.1609,2.1649,2.169,2.1727,2.1759,2.1765,2.1794,2.179,2.1843,2.1806,2.1879,2.1842,2.1865,2.1876,2.1879,2.1885,2.1844,2.1911,2.2024,2.2037,2.189,2.1889,2.1887,0,2.1501,2.1571,2.1632,2.165,2.1689,2.1718,2.1735,2.1765,2.1792,2.1828,2.1845,2.1887,2.1909,2.1942,2.195,2.1923,2.2023,2.1987,2.203,2.203,2.2052,2.205,2.2171,2.2067,2.2066,2.2066,2.2066,0,2.1593,2.1646,2.1662,2.1699,2.1758,2.1763,2.1822,2.1838,2.1865,2.1905,2.1898,2.1936,2.1944,2.1984,2.1991,2.2051,2.2061,2.2068,2.2069,2.2069,2.2068,2.2084,2.2078,2.2069,2.2069,2.2068,2.2068,0,2.1675,2.1687,2.1753,2.1785,2.1794,2.1837,2.1865,2.1901,2.1912,2.1964,2.1976,2.1995,2.2042,2.2053,2.2109,2.2113,2.2184,2.218,2.2173,2.2173,2.2216,2.2212,2.2351,2.237,2.2253,2.2254,2.2255,0,2.1733,2.1773,2.181,2.1837,2.1856,2.1899,2.1927,2.1933,2.1962,2.2002,2.2034,2.208,2.2117,2.2193,2.2211,2.2254,2.2251,2.2297,2.2257,2.2256,2.2252,2.225,2.2254,2.2304,2.2305,2.2306,2.2307,0,2.1834,2.1839,2.1878,2.192,2.1953,2.1987,2.2018,2.2041,2.2052,2.2085,2.2133,2.2162,2.2219,2.2266,2.2309,2.2327,2.232,2.232,2.2332,2.2332,2.2327,2.2331,2.2194,2.2316,2.2316,2.2315,2.2314,2.2314,2.1906,2.1942,2.1974,2.2018,2.2043,2.2074,2.2109,2.2126,2.2166,2.2214,2.2215,2.2268,2.23,2.2358,2.2379,2.242,2.2406,2.2424,2.2428,2.2433,2.2437,2.232,2.2428,2.2428,2.2428,2.2427,2.2427,0,2.2007,2.2027,2.2068,2.2114,2.2149,2.2139,2.2174,2.2205,2.2251,2.2281,2.2319,2.2374,2.242,2.2442,2.2487,2.2516,2.2514,2.2528,2.2525,2.253,2.2446,2.2431,2.2529,2.2529,2.2529,2.2529,2.2529,2.2529,2.2064,2.2125,2.2133,2.2206,2.2226,2.2278,2.2299,2.2327,2.2352,2.2414,2.2452,2.2467,2.2494,2.2541,2.2583,2.2588,2.2605,2.2621,2.2625,2.2546,2.2536,2.2526,2.2512,2.2624,2.2625,2.2705,2.2706,2.2706]},{"header":{"parameterUnit":"m.s-1","parameterCategory":1,"la1":30.2991,"la2":30.254,"lo1":-89.0895,"lo2":-89.0444,"dy":0.0017,"dx":0.0017,"nx":28,"ny":28,"refTime":"2025-03-10T09:00:00:Z","depth":0,"parameterNumber":3,"parameterNumberName":"V-component_of_WINDS"},"data":[0,0,0,0,0,0,0,0,0,0,0,0,0,0,0,0,0,0,0,0,0,0,0,0,0,0,0,0,0,0,0,0,0,0,0,0,0,0,0,0,0,0,0,0,0,0,0,0,0,0,0,0,0,0,0,0,0,0,-2.496,-2.4961,0,-2.5101,-2.5102,-2.5104,-2.5103,-2.5101,-2.5099,-2.5098,-2.5244,-2.5249,-2.5255,0,0,0,0,0,0,0,0,0,0,0,0,0,-2.4691,-2.4696,-2.4959,-2.4961,-2.4963,-2.5101,-2.5102,-2.5104,-2.5104,-2.5101,-2.5099,-2.5097,-2.5242,-2.5248,-2.5255,0,0,0,0,0,0,0,0,0,0,0,0,0,-2.4818,-2.4698,-2.4959,-2.4979,-2.4982,-2.51,-2.5103,-2.5105,-2.5104,-2.5101,-2.5098,-2.5096,-2.524,-2.5248,-2.5256,-2.5364,0,0,-2.5282,-2.5286,0,0,0,0,0,0,0,0,-2.481,-2.4827,-2.4974,-2.4978,-2.4982,-2.5081,-2.5061,-2.5192,-2.5105,-2.5058,-2.5098,-2.5094,-2.5192,-2.5204,-2.5237,-2.5371,-2.5377,-2.5283,-2.5288,-2.5291,-2.5294,0,0,0,0,0,0,0,-2.4802,-2.4821,-2.5015,-2.4976,-2.4981,-2.4982,-2.4997,-2.5086,-2.5139,-2.5062,-2.5062,-2.5079,-2.5194,-2.5229,-2.524,-2.5379,-2.5282,-2.529,-2.5295,-2.5298,-2.561,-2.5613,0,0,0,0,0,0,-2.4789,-2.4814,-2.5011,-2.502,-2.4887,-2.4989,-2.5005,-2.5052,-2.5138,-2.5148,-2.5081,-2.5078,-2.5216,-2.523,-2.5245,-2.5378,-2.5291,-2.5299,-2.5304,-2.5607,-2.5611,-2.5615,0,0,0,0,0,0,-2.4783,-2.4806,-2.5005,-2.4917,-2.4942,-2.4996,-2.5049,-2.5057,-2.5092,-2.5152,-2.5162,-2.5107,-2.5214,-2.5234,-2.5335,-2.5383,-2.5303,-2.5311,-2.5603,-2.5608,-2.5613,-2.5644,0,0,0,0,0,0,-2.4775,-2.4804,-2.4845,-2.4918,-2.4947,-2.5091,-2.5052,-2.5061,-2.5106,-2.5104,-2.5179,-2.5189,-2.5213,-2.5322,-2.5343,-2.5393,-2.5317,-2.5599,-2.5606,-2.5611,-2.5639,-2.5649,-2.5658,0,0,0,0,0,-2.4765,-2.4848,-2.4847,-2.4871,-2.4999,-2.5094,-2.5111,-2.5137,-2.511,-2.5152,-2.5191,-2.5187,-2.5375,-2.5333,-2.5356,-2.541,-2.5596,-2.5604,-2.5611,-2.5635,-2.5647,-2.5658,0,0,0,0,0,0,-2.4779,-2.4858,-2.4857,-2.4966,-2.5023,-2.5094,-2.5147,-2.5149,-2.5216,-2.5211,-2.524,-2.5257,-2.5359,-2.5394,-2.5346,-2.5519,-2.5482,-2.5495,-2.5492,-2.5505,-2.5514,-2.5504,-2.5324,0,0,0,0,0,-2.4795,-2.4865,-2.493,-2.5019,-2.5048,-2.5093,-2.5135,-2.515,-2.5211,-2.5236,-2.5282,-2.5342,-2.5415,-2.5462,-2.5532,-2.5644,-2.5661,-2.5693,-2.5702,-2.571,-2.5721,-2.5784,-2.5799,-2.5638,-2.5638,-2.5638,0,0,-2.4828,-2.4879,-2.4922,-2.5023,-2.507,-2.5143,-2.5113,-2.5191,-2.5246,-2.5248,-2.5346,-2.5383,-2.5451,-2.5559,-2.5609,-2.5592,-2.5769,-2.5719,-2.5725,-2.5731,-2.5793,-2.5808,-2.5822,-2.5643,-2.5642,-2.5642,0,0,-2.4925,-2.4971,-2.5051,-2.5098,-2.5169,-2.5198,-2.5217,-2.5288,-2.5313,-2.5412,-2.5415,-2.5481,-2.5605,-2.5654,-2.5695,-2.5813,-2.5812,-2.5835,-2.5886,-2.5948,-2.596,-2.5972,-2.6015,-2.603,-2.5846,-2.5846,-2.5846,0,-2.4957,-2.5066,-2.5092,-2.5171,-2.5216,-2.5221,-2.5303,-2.5348,-2.5438,-2.5469,-2.5449,-2.5606,-2.5652,-2.5772,-2.5801,-2.5834,-2.5858,-2.5827,-2.5956,-2.5968,-2.5979,-2.6021,-2.6037,-2.5848,-2.5848,-2.5848,-2.5847,0,-2.5103,-2.5179,-2.5235,-2.5322,-2.5374,-2.5453,-2.5492,-2.5541,-2.5552,-2.5584,-2.5686,-2.5743,-2.5825,-2.5854,-2.5866,-2.5977,-2.5964,-2.595,-2.5913,-2.5997,-2.6036,-2.6052,-2.5852,-2.5851,-2.585,-2.5849,0,0,-2.5212,-2.5313,-2.5333,-2.5373,-2.5452,-2.5512,-2.5593,-2.5673,-2.5715,-2.5777,-2.5847,-2.5952,-2.594,-2.5987,-2.6004,-2.6058,-2.615,-2.6038,-2.604,-2.6057,-2.6277,-2.6287,-2.6305,-2.6149,-2.6153,-2.6155,-2.6271,0,-2.5318,-2.5461,-2.5487,-2.5612,-2.5683,-2.569,-2.5761,-2.5817,-2.585,-2.5916,-2.5952,-2.6026,-2.6004,-2.6033,-2.6087,-2.6127,-2.6194,-2.6119,-2.6215,-2.6218,-2.6198,-2.6326,-2.6337,-2.6444,-2.6287,-2.629,-2.6291,0,-2.5461,-2.5527,-2.5659,-2.573,-2.5761,-2.5823,-2.59,-2.5962,-2.6028,-2.6048,-2.6101,-2.6112,-2.6198,-2.6157,-2.6276,-2.6224,-2.6265,-2.6291,-2.6296,-2.6306,-2.626,-2.634,-2.6479,-2.6495,-2.6316,-2.6314,-2.6312,0,-2.5528,-2.565,-2.5745,-2.5779,-2.5864,-2.5908,-2.5946,-2.6008,-2.6055,-2.6122,-2.6154,-2.623,-2.6272,-2.6331,-2.6363,-2.6331,-2.6481,-2.6442,-2.65,-2.65,-2.6532,-2.6529,-2.6679,-2.6557,-2.6557,-2.6557,-2.6556,0,-2.5644,-2.5725,-2.5777,-2.5835,-2.5927,-2.5957,-2.6046,-2.6083,-2.6139,-2.6206,-2.6216,-2.6279,-2.6317,-2.6386,-2.6412,-2.6507,-2.6526,-2.6545,-2.6551,-2.6545,-2.6542,-2.6572,-2.6566,-2.6561,-2.656,-2.6559,-2.6559,0,-2.5735,-2.5772,-2.5877,-2.5949,-2.5969,-2.6033,-2.6095,-2.6153,-2.6186,-2.627,-2.6292,-2.6344,-2.6425,-2.6463,-2.6564,-2.6581,-2.669,-2.669,-2.6668,-2.667,-2.6726,-2.6721,-2.6901,-2.6927,-2.6787,-2.6788,-2.679,0,-2.5806,-2.5869,-2.5947,-2.5993,-2.6031,-2.6104,-2.6153,-2.6185,-2.6235,-2.6315,-2.6363,-2.6445,-2.6512,-2.6642,-2.6689,-2.6767,-2.677,-2.6828,-2.6782,-2.6774,-2.6772,-2.6768,-2.6775,-2.6836,-2.6838,-2.6839,-2.684,0,-2.593,-2.5946,-2.6015,-2.6091,-2.6148,-2.621,-2.627,-2.6307,-2.6349,-2.6405,-2.6489,-2.6541,-2.6644,-2.6726,-2.6807,-2.6846,-2.6851,-2.6854,-2.6872,-2.6866,-2.685,-2.686,-2.6691,-2.685,-2.6849,-2.6848,-2.6847,-2.6847,-2.6014,-2.607,-2.6135,-2.6212,-2.6261,-2.6317,-2.6376,-2.6416,-2.6486,-2.6572,-2.6587,-2.6676,-2.6742,-2.6851,-2.6893,-2.6964,-2.6951,-2.6976,-2.6983,-2.6989,-2.6992,-2.6839,-2.6979,-2.6979,-2.6979,-2.6978,-2.6978,0,-2.6139,-2.6181,-2.6251,-2.6336,-2.6397,-2.6395,-2.6463,-2.6514,-2.6592,-2.6652,-2.6718,-2.6815,-2.6894,-2.6948,-2.7029,-2.7076,-2.708,-2.7096,-2.7093,-2.7103,-2.6999,-2.6976,-2.7091,-2.7091,-2.7091,-2.7091,-2.7091,-2.7091,-2.6211,-2.6306,-2.633,-2.6451,-2.6493,-2.658,-2.6619,-2.6672,-2.672,-2.6827,-2.6893,-2.6928,-2.6986,-2.7072,-2.7145,-2.7159,-2.7189,-2.7205,-2.7219,-2.7122,-2.711,-2.7098,-2.7077,-2.7211,-2.7212,-2.7317,-2.7318,-2.7319]}]]